Year,Month,Day,Hour,Minute,Value (Times are PST for temperature in C)
2014,06,23,00,00,13.40
2014,06,23,00,01,13.40
2014,06,23,00,02,13.40
2014,06,23,00,03,13.40
2014,06,23,00,04,13.30
2014,06,23,00,05,13.30
2014,06,23,00,06,13.30
2014,06,23,00,07,13.30
2014,06,23,00,08,13.30
2014,06,23,00,09,13.30
2014,06,23,00,10,13.30
2014,06,23,00,11,13.30
2014,06,23,00,12,13.30
2014,06,23,00,13,13.30
2014,06,23,00,14,13.30
2014,06,23,00,15,13.30
2014,06,23,00,16,13.30
2014,06,23,00,17,13.30
2014,06,23,00,18,13.30
2014,06,23,00,19,13.30
2014,06,23,00,20,13.20
2014,06,23,00,21,13.20
2014,06,23,00,22,13.20
2014,06,23,00,23,13.20
2014,06,23,00,24,13.20
2014,06,23,00,25,13.20
2014,06,23,00,26,13.20
2014,06,23,00,27,13.10
2014,06,23,00,28,13.10
2014,06,23,00,29,13.10
2014,06,23,00,30,13.10
2014,06,23,00,31,13.10
2014,06,23,00,32,13.10
2014,06,23,00,33,13.00
2014,06,23,00,34,13.00
2014,06,23,00,35,13.00
2014,06,23,00,36,13.00
2014,06,23,00,37,13.00
2014,06,23,00,38,13.00
2014,06,23,00,39,12.90
2014,06,23,00,40,12.90
2014,06,23,00,41,12.90
2014,06,23,00,42,12.90
2014,06,23,00,43,12.90
2014,06,23,00,44,12.90
2014,06,23,00,45,12.80
2014,06,23,00,46,12.80
2014,06,23,00,47,12.80
2014,06,23,00,48,12.80
2014,06,23,00,49,12.80
2014,06,23,00,50,12.80
2014,06,23,00,51,12.80
2014,06,23,00,52,12.80
2014,06,23,00,53,12.80
2014,06,23,00,54,12.80
2014,06,23,00,55,12.80
2014,06,23,00,56,12.70
2014,06,23,00,57,12.70
2014,06,23,00,58,12.70
2014,06,23,00,59,12.70
2014,06,23,01,00,12.70
2014,06,23,01,01,12.60
2014,06,23,01,02,12.60
2014,06,23,01,03,12.60
2014,06,23,01,04,12.50
2014,06,23,01,05,12.50
2014,06,23,01,06,12.50
2014,06,23,01,07,12.50
2014,06,23,01,08,12.50
2014,06,23,01,09,12.40
2014,06,23,01,10,12.40
2014,06,23,01,11,12.40
2014,06,23,01,12,12.40
2014,06,23,01,13,12.30
2014,06,23,01,14,12.30
2014,06,23,01,15,12.30
2014,06,23,01,16,12.30
2014,06,23,01,17,12.30
2014,06,23,01,18,12.30
2014,06,23,01,19,12.30
2014,06,23,01,20,12.30
2014,06,23,01,21,12.30
2014,06,23,01,22,12.20
2014,06,23,01,23,12.20
2014,06,23,01,24,12.20
2014,06,23,01,25,12.20
2014,06,23,01,26,12.20
2014,06,23,01,27,12.10
2014,06,23,01,28,12.10
2014,06,23,01,29,12.10
2014,06,23,01,30,12.10
2014,06,23,01,31,12.10
2014,06,23,01,32,12.10
2014,06,23,01,33,12.00
2014,06,23,01,34,12.00
2014,06,23,01,35,12.00
2014,06,23,01,36,12.00
2014,06,23,01,37,11.90
2014,06,23,01,38,11.90
2014,06,23,01,39,11.90
2014,06,23,01,40,11.90
2014,06,23,01,41,11.90
2014,06,23,01,42,11.80
2014,06,23,01,43,11.80
2014,06,23,01,44,11.80
2014,06,23,01,45,11.80
2014,06,23,01,46,11.80
2014,06,23,01,47,11.80
2014,06,23,01,48,11.80
2014,06,23,01,49,11.80
2014,06,23,01,50,11.80
2014,06,23,01,51,11.80
2014,06,23,01,52,11.80
2014,06,23,01,53,11.80
2014,06,23,01,54,11.80
2014,06,23,01,55,11.80
2014,06,23,01,56,11.80
2014,06,23,01,57,11.80
2014,06,23,01,58,11.80
2014,06,23,01,59,11.80
2014,06,23,02,00,11.80
2014,06,23,02,01,11.80
2014,06,23,02,02,11.80
2014,06,23,02,03,11.80
2014,06,23,02,04,11.90
2014,06,23,02,05,11.90
2014,06,23,02,06,11.90
2014,06,23,02,07,11.90
2014,06,23,02,08,11.90
2014,06,23,02,09,11.90
2014,06,23,02,10,11.90
2014,06,23,02,11,12.00
2014,06,23,02,12,12.00
2014,06,23,02,13,12.00
2014,06,23,02,14,12.00
2014,06,23,02,15,12.00
2014,06,23,02,16,12.00
2014,06,23,02,17,12.00
2014,06,23,02,18,12.00
2014,06,23,02,19,12.00
2014,06,23,02,20,12.00
2014,06,23,02,21,12.10
2014,06,23,02,22,12.10
2014,06,23,02,23,12.10
2014,06,23,02,24,12.10
2014,06,23,02,25,12.20
2014,06,23,02,26,12.20
2014,06,23,02,27,12.20
2014,06,23,02,28,12.20
2014,06,23,02,29,12.20
2014,06,23,02,30,12.20
2014,06,23,02,31,12.20
2014,06,23,02,32,12.20
2014,06,23,02,33,12.20
2014,06,23,02,34,12.30
2014,06,23,02,35,12.20
2014,06,23,02,36,12.20
2014,06,23,02,37,12.20
2014,06,23,02,38,12.20
2014,06,23,02,39,12.20
2014,06,23,02,40,12.30
2014,06,23,02,41,12.30
2014,06,23,02,42,12.30
2014,06,23,02,43,12.30
2014,06,23,02,44,12.30
2014,06,23,02,45,12.30
2014,06,23,02,46,12.30
2014,06,23,02,47,12.30
2014,06,23,02,48,12.30
2014,06,23,02,49,12.30
2014,06,23,02,50,12.30
2014,06,23,02,51,12.30
2014,06,23,02,52,12.30
2014,06,23,02,53,12.30
2014,06,23,02,54,12.30
2014,06,23,02,55,12.20
2014,06,23,02,56,12.30
2014,06,23,02,57,12.30
2014,06,23,02,58,12.30
2014,06,23,02,59,12.30
2014,06,23,03,00,12.30
2014,06,23,03,01,12.30
2014,06,23,03,02,12.30
2014,06,23,03,03,12.30
2014,06,23,03,04,12.20
2014,06,23,03,05,12.20
2014,06,23,03,06,12.20
2014,06,23,03,07,12.20
2014,06,23,03,08,12.20
2014,06,23,03,09,12.20
2014,06,23,03,10,12.20
2014,06,23,03,11,12.20
2014,06,23,03,12,12.10
2014,06,23,03,13,12.10
2014,06,23,03,14,12.10
2014,06,23,03,15,12.10
2014,06,23,03,16,12.00
2014,06,23,03,17,12.00
2014,06,23,03,18,12.00
2014,06,23,03,19,12.00
2014,06,23,03,20,11.90
2014,06,23,03,21,11.90
2014,06,23,03,22,11.90
2014,06,23,03,23,11.90
2014,06,23,03,24,11.80
2014,06,23,03,25,11.80
2014,06,23,03,26,11.80
2014,06,23,03,27,11.80
2014,06,23,03,28,11.80
2014,06,23,03,29,11.80
2014,06,23,03,30,11.80
2014,06,23,03,31,11.80
2014,06,23,03,32,11.80
2014,06,23,03,33,11.80
2014,06,23,03,34,11.80
2014,06,23,03,35,11.80
2014,06,23,03,36,11.80
2014,06,23,03,37,11.80
2014,06,23,03,38,11.80
2014,06,23,03,39,11.80
2014,06,23,03,40,11.70
2014,06,23,03,41,11.70
2014,06,23,03,42,11.70
2014,06,23,03,43,11.70
2014,06,23,03,44,11.70
2014,06,23,03,45,11.70
2014,06,23,03,46,11.70
2014,06,23,03,47,11.70
2014,06,23,03,48,11.70
2014,06,23,03,49,11.70
2014,06,23,03,50,11.70
2014,06,23,03,51,11.70
2014,06,23,03,52,11.70
2014,06,23,03,53,11.70
2014,06,23,03,54,11.60
2014,06,23,03,55,11.60
2014,06,23,03,56,11.60
2014,06,23,03,57,11.60
2014,06,23,03,58,11.60
2014,06,23,03,59,11.70
2014,06,23,04,00,11.70
2014,06,23,04,01,11.70
2014,06,23,04,02,11.70
2014,06,23,04,03,11.70
2014,06,23,04,04,11.70
2014,06,23,04,05,11.80
2014,06,23,04,06,11.80
2014,06,23,04,07,11.80
2014,06,23,04,08,11.80
2014,06,23,04,09,11.80
2014,06,23,04,10,11.80
2014,06,23,04,11,11.80
2014,06,23,04,12,11.80
2014,06,23,04,13,11.80
2014,06,23,04,14,11.80
2014,06,23,04,15,11.80
2014,06,23,04,16,11.90
2014,06,23,04,17,11.90
2014,06,23,04,18,11.90
2014,06,23,04,19,11.90
2014,06,23,04,20,12.00
2014,06,23,04,21,12.00
2014,06,23,04,22,12.00
2014,06,23,04,23,12.00
2014,06,23,04,24,12.00
2014,06,23,04,25,12.00
2014,06,23,04,26,12.00
2014,06,23,04,27,12.00
2014,06,23,04,28,12.10
2014,06,23,04,29,12.10
2014,06,23,04,30,12.10
2014,06,23,04,31,12.10
2014,06,23,04,32,12.20
2014,06,23,04,33,12.20
2014,06,23,04,34,12.20
2014,06,23,04,35,12.30
2014,06,23,04,36,12.30
2014,06,23,04,37,12.30
2014,06,23,04,38,12.30
2014,06,23,04,39,12.30
2014,06,23,04,40,12.40
2014,06,23,04,41,12.40
2014,06,23,04,42,12.40
2014,06,23,04,43,12.50
2014,06,23,04,44,12.50
2014,06,23,04,45,12.50
2014,06,23,04,46,12.60
2014,06,23,04,47,12.60
2014,06,23,04,48,12.60
2014,06,23,04,49,12.70
2014,06,23,04,50,12.70
2014,06,23,04,51,12.70
2014,06,23,04,52,12.70
2014,06,23,04,53,12.70
2014,06,23,04,54,12.80
2014,06,23,04,55,12.80
2014,06,23,04,56,12.80
2014,06,23,04,57,12.80
2014,06,23,04,58,12.80
2014,06,23,04,59,12.80
2014,06,23,05,00,12.80
2014,06,23,05,01,12.80
2014,06,23,05,02,12.80
2014,06,23,05,03,12.80
2014,06,23,05,04,12.80
2014,06,23,05,05,12.80
2014,06,23,05,06,12.80
2014,06,23,05,07,12.80
2014,06,23,05,08,12.80
2014,06,23,05,09,12.80
2014,06,23,05,10,12.80
2014,06,23,05,11,12.80
2014,06,23,05,12,12.80
2014,06,23,05,13,12.80
2014,06,23,05,14,12.70
2014,06,23,05,15,12.70
2014,06,23,05,16,12.70
2014,06,23,05,17,12.70
2014,06,23,05,18,12.70
2014,06,23,05,19,12.70
2014,06,23,05,20,12.70
2014,06,23,05,21,12.70
2014,06,23,05,22,12.70
2014,06,23,05,23,12.70
2014,06,23,05,24,12.70
2014,06,23,05,25,12.70
2014,06,23,05,26,12.70
2014,06,23,05,27,12.70
2014,06,23,05,28,12.70
2014,06,23,05,29,12.70
2014,06,23,05,30,12.70
2014,06,23,05,31,12.60
2014,06,23,05,32,12.60
2014,06,23,05,33,12.60
2014,06,23,05,34,12.60
2014,06,23,05,35,12.60
2014,06,23,05,36,12.60
2014,06,23,05,37,12.60
2014,06,23,05,38,12.60
2014,06,23,05,39,12.50
2014,06,23,05,40,12.50
2014,06,23,05,41,12.50
2014,06,23,05,42,12.50
2014,06,23,05,43,12.50
2014,06,23,05,44,12.50
2014,06,23,05,45,12.40
2014,06,23,05,46,12.40
2014,06,23,05,47,12.40
2014,06,23,05,48,12.40
2014,06,23,05,49,12.30
2014,06,23,05,50,12.30
2014,06,23,05,51,12.30
2014,06,23,05,52,12.30
2014,06,23,05,53,12.30
2014,06,23,05,54,12.30
2014,06,23,05,55,12.30
2014,06,23,05,56,12.30
2014,06,23,05,57,12.30
2014,06,23,05,58,12.20
2014,06,23,05,59,12.20
2014,06,23,06,00,12.20
2014,06,23,06,01,12.20
2014,06,23,06,02,12.20
2014,06,23,06,03,12.30
2014,06,23,06,04,12.30
2014,06,23,06,05,12.30
2014,06,23,06,06,12.30
2014,06,23,06,07,12.30
2014,06,23,06,08,12.30
2014,06,23,06,09,12.30
2014,06,23,06,10,12.30
2014,06,23,06,11,12.30
2014,06,23,06,12,12.30
2014,06,23,06,13,12.30
2014,06,23,06,14,12.30
2014,06,23,06,15,12.40
2014,06,23,06,16,12.40
2014,06,23,06,17,12.40
2014,06,23,06,18,12.40
2014,06,23,06,19,12.50
2014,06,23,06,20,12.50
2014,06,23,06,21,12.50
2014,06,23,06,22,12.50
2014,06,23,06,23,12.60
2014,06,23,06,24,12.60
2014,06,23,06,25,12.60
2014,06,23,06,26,12.60
2014,06,23,06,27,12.70
2014,06,23,06,28,12.70
2014,06,23,06,29,12.80
2014,06,23,06,30,12.80
2014,06,23,06,31,12.80
2014,06,23,06,32,12.80
2014,06,23,06,33,12.80
2014,06,23,06,34,12.80
2014,06,23,06,35,12.90
2014,06,23,06,36,12.90
2014,06,23,06,37,13.00
2014,06,23,06,38,13.00
2014,06,23,06,39,13.00
2014,06,23,06,40,13.00
2014,06,23,06,41,13.10
2014,06,23,06,42,13.10
2014,06,23,06,43,13.10
2014,06,23,06,44,13.20
2014,06,23,06,45,13.20
2014,06,23,06,46,13.20
2014,06,23,06,47,13.20
2014,06,23,06,48,13.30
2014,06,23,06,49,13.30
2014,06,23,06,50,13.30
2014,06,23,06,51,13.30
2014,06,23,06,52,13.30
2014,06,23,06,53,13.40
2014,06,23,06,54,13.40
2014,06,23,06,55,13.40
2014,06,23,06,56,13.40
2014,06,23,06,57,13.50
2014,06,23,06,58,13.50
2014,06,23,06,59,13.50
2014,06,23,07,00,13.50
2014,06,23,07,01,13.50
2014,06,23,07,02,13.60
2014,06,23,07,03,13.60
2014,06,23,07,04,13.60
2014,06,23,07,05,13.60
2014,06,23,07,06,13.70
2014,06,23,07,07,13.70
2014,06,23,07,08,13.70
2014,06,23,07,09,13.70
2014,06,23,07,10,13.70
2014,06,23,07,11,13.80
2014,06,23,07,12,13.80
2014,06,23,07,13,13.90
2014,06,23,07,14,13.90
2014,06,23,07,15,13.90
2014,06,23,07,16,14.00
2014,06,23,07,17,14.00
2014,06,23,07,18,14.00
2014,06,23,07,19,14.10
2014,06,23,07,20,14.10
2014,06,23,07,21,14.20
2014,06,23,07,22,14.20
2014,06,23,07,23,14.20
2014,06,23,07,24,14.30
2014,06,23,07,25,14.30
2014,06,23,07,26,14.40
2014,06,23,07,27,14.40
2014,06,23,07,28,14.50
2014,06,23,07,29,14.50
2014,06,23,07,30,14.50
2014,06,23,07,31,14.60
2014,06,23,07,32,14.60
2014,06,23,07,33,14.70
2014,06,23,07,34,14.80
2014,06,23,07,35,14.80
2014,06,23,07,36,14.80
2014,06,23,07,37,14.90
2014,06,23,07,38,14.90
2014,06,23,07,39,14.90
2014,06,23,07,40,15.00
2014,06,23,07,41,15.00
2014,06,23,07,42,15.10
2014,06,23,07,43,15.10
2014,06,23,07,44,15.10
2014,06,23,07,45,15.10
2014,06,23,07,46,15.10
2014,06,23,07,47,15.10
2014,06,23,07,48,15.10
2014,06,23,07,49,15.10
2014,06,23,07,50,15.10
2014,06,23,07,51,15.10
2014,06,23,07,52,15.10
2014,06,23,07,53,15.10
2014,06,23,07,54,15.20
2014,06,23,07,55,15.20
2014,06,23,07,56,15.20
2014,06,23,07,57,15.20
2014,06,23,07,58,15.20
2014,06,23,07,59,15.30
2014,06,23,08,00,15.30
2014,06,23,08,01,15.30
2014,06,23,08,02,15.30
2014,06,23,08,03,15.30
2014,06,23,08,04,15.30
2014,06,23,08,05,15.30
2014,06,23,08,06,15.30
2014,06,23,08,07,15.40
2014,06,23,08,08,15.40
2014,06,23,08,09,15.40
2014,06,23,08,10,15.40
2014,06,23,08,11,15.50
2014,06,23,08,12,15.50
2014,06,23,08,13,15.50
2014,06,23,08,14,15.50
2014,06,23,08,15,15.50
2014,06,23,08,16,15.60
2014,06,23,08,17,15.60
2014,06,23,08,18,15.60
2014,06,23,08,19,15.60
2014,06,23,08,20,15.60
2014,06,23,08,21,15.70
2014,06,23,08,22,15.70
2014,06,23,08,23,15.70
2014,06,23,08,24,15.80
2014,06,23,08,25,15.80
2014,06,23,08,26,15.80
2014,06,23,08,27,15.80
2014,06,23,08,28,15.80
2014,06,23,08,29,15.80
2014,06,23,08,30,15.80
2014,06,23,08,31,15.80
2014,06,23,08,32,15.90
2014,06,23,08,33,15.90
2014,06,23,08,34,15.90
2014,06,23,08,35,16.10
2014,06,23,08,36,16.10
2014,06,23,08,37,16.10
2014,06,23,08,38,16.10
2014,06,23,08,39,16.10
2014,06,23,08,40,16.10
2014,06,23,08,41,16.10
2014,06,23,08,42,16.20
2014,06,23,08,43,16.20
2014,06,23,08,44,16.30
2014,06,23,08,45,16.30
2014,06,23,08,46,16.40
2014,06,23,08,47,16.40
2014,06,23,08,48,16.40
2014,06,23,08,49,16.40
2014,06,23,08,50,16.40
2014,06,23,08,51,16.40
2014,06,23,08,52,16.40
2014,06,23,08,53,16.40
2014,06,23,08,54,16.40
2014,06,23,08,55,16.50
2014,06,23,08,56,16.60
2014,06,23,08,57,16.60
2014,06,23,08,58,16.60
2014,06,23,08,59,16.70
2014,06,23,09,00,16.70
2014,06,23,09,01,16.70
2014,06,23,09,02,16.70
2014,06,23,09,03,16.70
2014,06,23,09,04,16.70
2014,06,23,09,05,16.70
2014,06,23,09,06,16.80
2014,06,23,09,07,16.80
2014,06,23,09,08,16.80
2014,06,23,09,09,16.90
2014,06,23,09,10,16.90
2014,06,23,09,11,16.90
2014,06,23,09,12,17.00
2014,06,23,09,13,17.00
2014,06,23,09,14,17.00
2014,06,23,09,15,17.00
2014,06,23,09,16,17.10
2014,06,23,09,17,17.10
2014,06,23,09,18,17.10
2014,06,23,09,19,17.20
2014,06,23,09,20,17.20
2014,06,23,09,21,17.30
2014,06,23,09,22,17.30
2014,06,23,09,23,17.40
2014,06,23,09,24,17.40
2014,06,23,09,25,17.50
2014,06,23,09,26,17.60
2014,06,23,09,27,17.70
2014,06,23,09,28,17.80
2014,06,23,09,29,17.90
2014,06,23,09,30,17.90
2014,06,23,09,31,18.00
2014,06,23,09,32,18.10
2014,06,23,09,33,18.10
2014,06,23,09,34,18.20
2014,06,23,09,35,18.20
2014,06,23,09,36,18.20
2014,06,23,09,37,18.20
2014,06,23,09,38,18.20
2014,06,23,09,39,18.20
2014,06,23,09,40,18.20
2014,06,23,09,41,18.20
2014,06,23,09,42,18.20
2014,06,23,09,43,18.20
2014,06,23,09,44,18.30
2014,06,23,09,45,18.30
2014,06,23,09,46,18.40
2014,06,23,09,47,18.50
2014,06,23,09,48,18.50
2014,06,23,09,49,18.60
2014,06,23,09,50,18.60
2014,06,23,09,51,18.70
2014,06,23,09,52,18.70
2014,06,23,09,53,18.70
2014,06,23,09,54,18.80
2014,06,23,09,55,18.80
2014,06,23,09,56,18.80
2014,06,23,09,57,18.80
2014,06,23,09,58,18.70
2014,06,23,09,59,18.70
2014,06,23,10,00,18.70
2014,06,23,10,01,18.70
2014,06,23,10,02,18.70
2014,06,23,10,03,18.60
2014,06,23,10,04,18.60
2014,06,23,10,05,18.50
2014,06,23,10,06,18.50
2014,06,23,10,07,18.50
2014,06,23,10,08,18.50
2014,06,23,10,09,18.50
2014,06,23,10,10,18.50
2014,06,23,10,11,18.40
2014,06,23,10,12,18.40
2014,06,23,10,13,18.40
2014,06,23,10,14,18.30
2014,06,23,10,15,18.30
2014,06,23,10,16,18.30
2014,06,23,10,17,18.30
2014,06,23,10,18,18.20
2014,06,23,10,19,18.20
2014,06,23,10,20,18.20
2014,06,23,10,21,18.20
2014,06,23,10,22,18.20
2014,06,23,10,23,18.20
2014,06,23,10,24,18.20
2014,06,23,10,25,18.10
2014,06,23,10,26,18.10
2014,06,23,10,27,18.00
2014,06,23,10,28,17.90
2014,06,23,10,29,17.90
2014,06,23,10,30,17.90
2014,06,23,10,31,17.90
2014,06,23,10,32,17.90
2014,06,23,10,33,17.90
2014,06,23,10,34,17.80
2014,06,23,10,35,17.70
2014,06,23,10,36,17.70
2014,06,23,10,37,17.70
2014,06,23,10,38,17.70
2014,06,23,10,39,17.60
2014,06,23,10,40,17.60
2014,06,23,10,41,17.50
2014,06,23,10,42,17.50
2014,06,23,10,43,17.50
2014,06,23,10,44,17.50
2014,06,23,10,45,17.50
2014,06,23,10,46,17.50
2014,06,23,10,47,17.50
2014,06,23,10,48,17.50
2014,06,23,10,49,17.50
2014,06,23,10,50,17.50
2014,06,23,10,51,17.50
2014,06,23,10,52,17.60
2014,06,23,10,53,17.60
2014,06,23,10,54,17.60
2014,06,23,10,55,17.60
2014,06,23,10,56,17.60
2014,06,23,10,57,17.70
2014,06,23,10,58,17.70
2014,06,23,10,59,17.70
2014,06,23,11,00,17.70
2014,06,23,11,01,17.70
2014,06,23,11,02,17.70
2014,06,23,11,03,17.80
2014,06,23,11,04,17.80
2014,06,23,11,05,17.80
2014,06,23,11,06,17.90
2014,06,23,11,07,17.90
2014,06,23,11,08,17.90
2014,06,23,11,09,17.90
2014,06,23,11,10,18.00
2014,06,23,11,11,18.10
2014,06,23,11,12,18.20
2014,06,23,11,13,18.20
2014,06,23,11,14,18.30
2014,06,23,11,15,18.40
2014,06,23,11,16,18.40
2014,06,23,11,17,18.50
2014,06,23,11,18,18.50
2014,06,23,11,19,18.60
2014,06,23,11,20,18.60
2014,06,23,11,21,18.70
2014,06,23,11,22,18.80
2014,06,23,11,23,18.80
2014,06,23,11,24,18.80
2014,06,23,11,25,18.90
2014,06,23,11,26,18.90
2014,06,23,11,27,18.90
2014,06,23,11,28,19.00
2014,06,23,11,29,19.10
2014,06,23,11,30,19.10
2014,06,23,11,31,19.10
2014,06,23,11,32,19.20
2014,06,23,11,33,19.20
2014,06,23,11,34,19.30
2014,06,23,11,35,19.30
2014,06,23,11,36,19.30
2014,06,23,11,37,19.40
2014,06,23,11,38,19.40
2014,06,23,11,39,19.40
2014,06,23,11,40,19.40
2014,06,23,11,41,19.40
2014,06,23,11,42,19.40
2014,06,23,11,43,19.40
2014,06,23,11,44,19.40
2014,06,23,11,45,19.40
2014,06,23,11,46,19.40
2014,06,23,11,47,19.50
2014,06,23,11,48,19.50
2014,06,23,11,49,19.50
2014,06,23,11,50,19.60
2014,06,23,11,51,19.60
2014,06,23,11,52,19.60
2014,06,23,11,53,19.70
2014,06,23,11,54,19.70
2014,06,23,11,55,19.80
2014,06,23,11,56,19.80
2014,06,23,11,57,19.90
2014,06,23,11,58,19.90
2014,06,23,11,59,19.90
2014,06,23,12,00,19.90
2014,06,23,12,01,19.80
2014,06,23,12,02,19.80
2014,06,23,12,03,19.80
2014,06,23,12,04,19.80
2014,06,23,12,05,19.80
2014,06,23,12,06,19.80
2014,06,23,12,07,19.70
2014,06,23,12,08,19.60
2014,06,23,12,09,19.50
2014,06,23,12,10,19.40
2014,06,23,12,11,19.40
2014,06,23,12,12,19.30
2014,06,23,12,13,19.20
2014,06,23,12,14,19.20
2014,06,23,12,15,19.10
2014,06,23,12,16,18.90
2014,06,23,12,17,18.90
2014,06,23,12,18,18.80
2014,06,23,12,19,18.70
2014,06,23,12,20,18.70
2014,06,23,12,21,18.60
2014,06,23,12,22,18.60
2014,06,23,12,23,18.60
2014,06,23,12,24,18.50
2014,06,23,12,25,18.50
2014,06,23,12,26,18.50
2014,06,23,12,27,18.50
2014,06,23,12,28,18.50
2014,06,23,12,29,18.50
2014,06,23,12,30,18.50
2014,06,23,12,31,18.50
2014,06,23,12,32,18.60
2014,06,23,12,33,18.50
2014,06,23,12,34,18.50
2014,06,23,12,35,18.50
2014,06,23,12,36,18.40
2014,06,23,12,37,18.40
2014,06,23,12,38,18.30
2014,06,23,12,39,18.30
2014,06,23,12,40,18.20
2014,06,23,12,41,18.20
2014,06,23,12,42,18.20
2014,06,23,12,43,18.10
2014,06,23,12,44,18.10
2014,06,23,12,45,17.90
2014,06,23,12,46,17.90
2014,06,23,12,47,17.90
2014,06,23,12,48,17.90
2014,06,23,12,49,17.90
2014,06,23,12,50,18.00
2014,06,23,12,51,18.10
2014,06,23,12,52,18.10
2014,06,23,12,53,18.20
2014,06,23,12,54,18.20
2014,06,23,12,55,18.20
2014,06,23,12,56,18.30
2014,06,23,12,57,18.40
2014,06,23,12,58,18.50
2014,06,23,12,59,18.50
2014,06,23,13,00,18.60
2014,06,23,13,01,18.70
2014,06,23,13,02,18.70
2014,06,23,13,03,18.80
2014,06,23,13,04,18.90
2014,06,23,13,05,18.90
2014,06,23,13,06,19.00
2014,06,23,13,07,19.10
2014,06,23,13,08,19.10
2014,06,23,13,09,19.20
2014,06,23,13,10,19.30
2014,06,23,13,11,19.40
2014,06,23,13,12,19.40
2014,06,23,13,13,19.50
2014,06,23,13,14,19.60
2014,06,23,13,15,19.60
2014,06,23,13,16,19.70
2014,06,23,13,17,19.70
2014,06,23,13,18,19.80
2014,06,23,13,19,19.80
2014,06,23,13,20,19.90
2014,06,23,13,21,19.90
2014,06,23,13,22,19.90
2014,06,23,13,23,19.90
2014,06,23,13,24,20.00
2014,06,23,13,25,20.10
2014,06,23,13,26,20.20
2014,06,23,13,27,20.30
2014,06,23,13,28,20.30
2014,06,23,13,29,20.40
2014,06,23,13,30,20.50
2014,06,23,13,31,20.60
2014,06,23,13,32,20.70
2014,06,23,13,33,20.80
2014,06,23,13,34,20.90
2014,06,23,13,35,21.00
2014,06,23,13,36,21.10
2014,06,23,13,37,21.10
2014,06,23,13,38,21.20
2014,06,23,13,39,21.20
2014,06,23,13,40,21.30
2014,06,23,13,41,21.30
2014,06,23,13,42,21.30
2014,06,23,13,43,21.30
2014,06,23,13,44,21.40
2014,06,23,13,45,21.50
2014,06,23,13,46,21.60
2014,06,23,13,47,21.60
2014,06,23,13,48,21.60
2014,06,23,13,49,21.60
2014,06,23,13,50,21.60
2014,06,23,13,51,21.60
2014,06,23,13,52,21.60
2014,06,23,13,53,21.70
2014,06,23,13,54,21.70
2014,06,23,13,55,21.70
2014,06,23,13,56,21.70
2014,06,23,13,57,21.70
2014,06,23,13,58,21.70
2014,06,23,13,59,21.80
2014,06,23,14,00,21.80
2014,06,23,14,01,21.80
2014,06,23,14,02,21.80
2014,06,23,14,03,21.80
2014,06,23,14,04,21.80
2014,06,23,14,05,21.80
2014,06,23,14,06,21.80
2014,06,23,14,07,21.80
2014,06,23,14,08,21.80
2014,06,23,14,09,21.80
2014,06,23,14,10,21.80
2014,06,23,14,11,21.80
2014,06,23,14,12,21.80
2014,06,23,14,13,21.80
2014,06,23,14,14,21.80
2014,06,23,14,15,21.80
2014,06,23,14,16,21.80
2014,06,23,14,17,21.80
2014,06,23,14,18,21.90
2014,06,23,14,19,21.90
2014,06,23,14,20,22.00
2014,06,23,14,21,22.00
2014,06,23,14,22,22.00
2014,06,23,14,23,22.10
2014,06,23,14,24,22.10
2014,06,23,14,25,22.10
2014,06,23,14,26,22.10
2014,06,23,14,27,22.10
2014,06,23,14,28,22.10
2014,06,23,14,29,22.10
2014,06,23,14,30,22.10
2014,06,23,14,31,22.00
2014,06,23,14,32,22.00
2014,06,23,14,33,22.00
2014,06,23,14,34,22.00
2014,06,23,14,35,22.00
2014,06,23,14,36,22.00
2014,06,23,14,37,22.00
2014,06,23,14,38,22.00
2014,06,23,14,39,22.00
2014,06,23,14,40,22.00
2014,06,23,14,41,22.00
2014,06,23,14,42,22.00
2014,06,23,14,43,22.00
2014,06,23,14,44,22.00
2014,06,23,14,45,22.00
2014,06,23,14,46,22.10
2014,06,23,14,47,22.10
2014,06,23,14,48,22.10
2014,06,23,14,49,22.20
2014,06,23,14,50,22.20
2014,06,23,14,51,22.20
2014,06,23,14,52,22.30
2014,06,23,14,53,22.30
2014,06,23,14,54,22.30
2014,06,23,14,55,22.30
2014,06,23,14,56,22.30
2014,06,23,14,57,22.40
2014,06,23,14,58,22.40
2014,06,23,14,59,22.40
2014,06,23,15,00,22.40
2014,06,23,15,01,22.50
2014,06,23,15,02,22.50
2014,06,23,15,03,22.40
2014,06,23,15,04,22.40
2014,06,23,15,05,22.40
2014,06,23,15,06,22.40
2014,06,23,15,07,22.40
2014,06,23,15,08,22.40
2014,06,23,15,09,22.40
2014,06,23,15,10,22.40
2014,06,23,15,11,22.40
2014,06,23,15,12,22.30
2014,06,23,15,13,22.30
2014,06,23,15,14,22.20
2014,06,23,15,15,22.10
2014,06,23,15,16,22.10
2014,06,23,15,17,22.00
2014,06,23,15,18,22.00
2014,06,23,15,19,21.90
2014,06,23,15,20,21.90
2014,06,23,15,21,21.90
2014,06,23,15,22,21.90
2014,06,23,15,23,21.90
2014,06,23,15,24,21.90
2014,06,23,15,25,21.90
2014,06,23,15,26,21.90
2014,06,23,15,27,21.80
2014,06,23,15,28,21.80
2014,06,23,15,29,21.80
2014,06,23,15,30,21.80
2014,06,23,15,31,21.80
2014,06,23,15,32,21.80
2014,06,23,15,33,21.80
2014,06,23,15,34,21.90
2014,06,23,15,35,21.90
2014,06,23,15,36,21.90
2014,06,23,15,37,21.90
2014,06,23,15,38,21.90
2014,06,23,15,39,21.90
2014,06,23,15,40,21.90
2014,06,23,15,41,21.80
2014,06,23,15,42,21.80
2014,06,23,15,43,21.80
2014,06,23,15,44,21.80
2014,06,23,15,45,21.80
2014,06,23,15,46,21.80
2014,06,23,15,47,21.80
2014,06,23,15,48,21.80
2014,06,23,15,49,21.80
2014,06,23,15,50,21.80
2014,06,23,15,51,21.80
2014,06,23,15,52,21.80
2014,06,23,15,53,21.80
2014,06,23,15,54,21.80
2014,06,23,15,55,21.80
2014,06,23,15,56,21.80
2014,06,23,15,57,21.80
2014,06,23,15,58,21.80
2014,06,23,15,59,21.90
2014,06,23,16,00,21.90
2014,06,23,16,01,22.00
2014,06,23,16,02,22.10
2014,06,23,16,03,22.20
2014,06,23,16,04,22.30
2014,06,23,16,05,22.30
2014,06,23,16,06,22.40
2014,06,23,16,07,22.50
2014,06,23,16,08,22.60
2014,06,23,16,09,22.60
2014,06,23,16,10,22.70
2014,06,23,16,11,22.70
2014,06,23,16,12,22.70
2014,06,23,16,13,22.80
2014,06,23,16,14,22.80
2014,06,23,16,15,22.70
2014,06,23,16,16,22.70
2014,06,23,16,17,22.70
2014,06,23,16,18,22.70
2014,06,23,16,19,22.70
2014,06,23,16,20,22.70
2014,06,23,16,21,22.70
2014,06,23,16,22,22.70
2014,06,23,16,23,22.70
2014,06,23,16,24,22.70
2014,06,23,16,25,22.70
2014,06,23,16,26,22.70
2014,06,23,16,27,22.70
2014,06,23,16,28,22.70
2014,06,23,16,29,22.70
2014,06,23,16,30,22.70
2014,06,23,16,31,22.70
2014,06,23,16,32,22.70
2014,06,23,16,33,22.70
2014,06,23,16,34,22.80
2014,06,23,16,35,22.70
2014,06,23,16,36,22.70
2014,06,23,16,37,22.70
2014,06,23,16,38,22.60
2014,06,23,16,39,22.60
2014,06,23,16,40,22.60
2014,06,23,16,41,22.50
2014,06,23,16,42,22.50
2014,06,23,16,43,22.50
2014,06,23,16,44,22.50
2014,06,23,16,45,22.50
2014,06,23,16,46,22.50
2014,06,23,16,47,22.50
2014,06,23,16,48,22.50
2014,06,23,16,49,22.50
2014,06,23,16,50,22.50
2014,06,23,16,51,22.40
2014,06,23,16,52,22.40
2014,06,23,16,53,22.40
2014,06,23,16,54,22.40
2014,06,23,16,55,22.40
2014,06,23,16,56,22.40
2014,06,23,16,57,22.30
2014,06,23,16,58,22.30
2014,06,23,16,59,22.30
2014,06,23,17,00,22.30
2014,06,23,17,01,22.20
2014,06,23,17,02,22.20
2014,06,23,17,03,22.10
2014,06,23,17,04,22.10
2014,06,23,17,05,22.00
2014,06,23,17,06,22.00
2014,06,23,17,07,22.00
2014,06,23,17,08,21.90
2014,06,23,17,09,21.90
2014,06,23,17,10,21.90
2014,06,23,17,11,21.80
2014,06,23,17,12,21.80
2014,06,23,17,13,21.70
2014,06,23,17,14,21.70
2014,06,23,17,15,21.70
2014,06,23,17,16,21.60
2014,06,23,17,17,21.60
2014,06,23,17,18,21.60
2014,06,23,17,19,21.60